When you browse on this site, cookies collect data to enhance your experience and personalize the content and advertising you see.
Visit our Privacy Policy to learn more. By continuing to use the site, you agree to this use of cookies and data.
  • In Österreich
  • Länderverzeichnis
  • Für 7 Tage
  • Wassertemperatur
  • Satellitenkarten
  • Wetterkarte
  • News
  • Widgets
  • user-avatar
    Anmelden

    Stündliche Wetter Corona

    Heute, 22 April, Montag

    Zeit Temperatur Niederschläge Wind Luftdruck Luftfeuchtigkeit
    00:00 +15°C° 0 mm 1 m/S 741 mmHg 73%
    01:00 +15°C° 0 mm 1 m/S 741 mmHg 74%
    02:00 +15°C° 0 mm 1 m/S 741 mmHg 74%
    03:00 +15°C° 0 mm 1 m/S 741 mmHg 74%
    04:00 +15°C° 0 mm 1 m/S 741 mmHg 75%
    05:00 +15°C° 0 mm 1 m/S 742 mmHg 72%
    06:00 +16°C° 0 mm 1 m/S 742 mmHg 68%
    07:00 +18°C° 0 mm 1 m/S 742 mmHg 65%
    08:00 +20°C° 0 mm 1 m/S 742 mmHg 54%
    09:00 +23°C° 0 mm 2 m/S 742 mmHg 42%
    10:00 +25°C° 0 mm 2 m/S 743 mmHg 31%
    11:00 +26°C° 0 mm 3 m/S 742 mmHg 29%
    12:00 +27°C° 0 mm 3 m/S 742 mmHg 27%
    13:00 +28°C° 0 mm 3 m/S 742 mmHg 26%
    14:00 +28°C° 0 mm 4 m/S 741 mmHg 28%
    15:00 +28°C° 0 mm 4 m/S 741 mmHg 30%
    16:00 +27°C° 0 mm 4 m/S 740 mmHg 32%
    17:00 +26°C° 0 mm 3 m/S 740 mmHg 39%
    18:00 +24°C° 0 mm 3 m/S 740 mmHg 46%
    19:00 +21°C° 0 mm 3 m/S 740 mmHg 52%
    20:00 +20°C° 0 mm 2 m/S 741 mmHg 55%
    21:00 +20°C° 0 mm 2 m/S 741 mmHg 58%
    22:00 +19°C° 0 mm 2 m/S 742 mmHg 62%
    23:00 +19°C° 0 mm 2 m/S 741 mmHg 62%

    Morgen, 23 April, Dienstag

    Zeit Temperatur Niederschläge Wind Luftdruck Luftfeuchtigkeit
    00:00 +19°C° 0 mm 1 m/S 741 mmHg 62%
    01:00 +19°C° 0 mm 1 m/S 741 mmHg 62%
    02:00 +19°C° 0 mm 1 m/S 741 mmHg 62%
    03:00 +19°C° 0 mm 1 m/S 741 mmHg 61%
    04:00 +19°C° 0 mm 1 m/S 741 mmHg 60%
    05:00 +20°C° 0 mm 1 m/S 741 mmHg 53%
    06:00 +22°C° 0 mm 1 m/S 742 mmHg 45%
    07:00 +23°C° 0 mm 1 m/S 742 mmHg 38%
    08:00 +25°C° 0 mm 1 m/S 742 mmHg 32%
    09:00 +28°C° 0 mm 2 m/S 742 mmHg 26%
    10:00 +30°C° 0 mm 3 m/S 743 mmHg 20%
    11:00 +31°C° 0 mm 3 m/S 742 mmHg 19%
    12:00 +33°C° 0 mm 3 m/S 742 mmHg 18%
    13:00 +34°C° 0 mm 3 m/S 742 mmHg 18%
    14:00 +33°C° 0 mm 4 m/S 741 mmHg 20%
    15:00 +32°C° 0 mm 4 m/S 741 mmHg 22%
    16:00 +30°C° 0 mm 5 m/S 740 mmHg 24%
    17:00 +28°C° 0 mm 4 m/S 741 mmHg 29%
    18:00 +27°C° 0 mm 3 m/S 741 mmHg 34%
    19:00 +25°C° 0 mm 2 m/S 741 mmHg 39%
    20:00 +24°C° 0 mm 2 m/S 741 mmHg 42%
    21:00 +23°C° 0 mm 2 m/S 742 mmHg 44%
    22:00 +22°C° 0 mm 1 m/S 742 mmHg 47%
    23:00 +22°C° 0 mm 1 m/S 742 mmHg 48%

    übermorgen, 24 April, Mittwoch

    Zeit Temperatur Niederschläge Wind Luftdruck Luftfeuchtigkeit
    00:00 +21°C° 0 mm 1 m/S 742 mmHg 49%
    01:00 +21°C° 0 mm 1 m/S 741 mmHg 50%
    02:00 +21°C° 0 mm 1 m/S 741 mmHg 50%
    03:00 +20°C° 0 mm 1 m/S 741 mmHg 50%
    04:00 +20°C° 0 mm 1 m/S 741 mmHg 51%
    05:00 +21°C° 0 mm 1 m/S 742 mmHg 47%
    06:00 +22°C° 0 mm 1 m/S 742 mmHg 44%
    07:00 +23°C° 0 mm 1 m/S 742 mmHg 41%
    08:00 +25°C° 0 mm 2 m/S 743 mmHg 37%
    09:00 +27°C° 0 mm 2 m/S 743 mmHg 32%
    10:00 +29°C° 0 mm 2 m/S 743 mmHg 27%
    11:00 +30°C° 0 mm 3 m/S 743 mmHg 26%
    12:00 +31°C° 0 mm 3 m/S 742 mmHg 24%
    13:00 +33°C° 0 mm 3 m/S 742 mmHg 22%
    14:00 +31°C° 0 mm 3 m/S 741 mmHg 23%
    15:00 +31°C° 0 mm 3 m/S 741 mmHg 24%
    16:00 +30°C° 0 mm 3 m/S 740 mmHg 26%
    17:00 +28°C° 0 mm 3 m/S 741 mmHg 30%
    18:00 +27°C° 0 mm 2 m/S 741 mmHg 34%
    19:00 +25°C° 0 mm 1 m/S 741 mmHg 39%
    20:00 +24°C° 0 mm 1 m/S 741 mmHg 41%
    21:00 +23°C° 0 mm 1 m/S 742 mmHg 44%
    22:00 +22°C° 0 mm 1 m/S 742 mmHg 47%
    23:00 +22°C° 0 mm 1 m/S 742 mmHg 49%

    25 April, Donnerstag

    Zeit Temperatur Niederschläge Wind Luftdruck Luftfeuchtigkeit
    00:00 +21°C° 0 mm 1 m/S 742 mmHg 50%
    01:00 +21°C° 0 mm 1 m/S 742 mmHg 52%
    02:00 +19°C° 0 mm 0 m/S 742 mmHg 53%
    03:00 +18°C° 0 mm 0 m/S 741 mmHg 54%
    04:00 +18°C° 0 mm 0 m/S 741 mmHg 55%
    05:00 +19°C° 0 mm 0 m/S 742 mmHg 49%
    06:00 +20°C° 0 mm 0 m/S 742 mmHg 44%
    07:00 +22°C° 0 mm 0 m/S 742 mmHg 39%
    08:00 +25°C° 0 mm 1 m/S 742 mmHg 34%
    09:00 +27°C° 0 mm 2 m/S 743 mmHg 29%
    10:00 +29°C° 0 mm 2 m/S 743 mmHg 24%
    11:00 +30°C° 0 mm 3 m/S 742 mmHg 23%
    12:00 +30°C° 0 mm 3 m/S 742 mmHg 22%
    13:00 +31°C° 0 mm 3 m/S 742 mmHg 21%
    14:00 +31°C° 0 mm 3 m/S 742 mmHg 22%
    15:00 +30°C° 0 mm 3 m/S 741 mmHg 22%
    16:00 +30°C° 0 mm 3 m/S 741 mmHg 23%
    17:00 +28°C° 0 mm 2 m/S 741 mmHg 27%
    18:00 +26°C° 0 mm 2 m/S 742 mmHg 31%
    19:00 +25°C° 0 mm 1 m/S 742 mmHg 36%
    20:00 +24°C° 0 mm 1 m/S 742 mmHg 39%
    21:00 +21°C° 0 mm 0 m/S 742 mmHg 42%
    22:00 +20°C° 0 mm 0 m/S 743 mmHg 45%
    23:00 +20°C° 0 mm 0 m/S 742 mmHg 46%

    26 April, Freitag

    Zeit Temperatur Niederschläge Wind Luftdruck Luftfeuchtigkeit
    00:00 +19°C° 0 mm 0 m/S 742 mmHg 47%
    01:00 +19°C° 0 mm 0 m/S 742 mmHg 48%
    02:00 +19°C° 0 mm 0 m/S 742 mmHg 49%
    03:00 +18°C° 0 mm 0 m/S 742 mmHg 50%
    04:00 +18°C° 0 mm 0 m/S 742 mmHg 51%
    05:00 +19°C° 0 mm 0 m/S 742 mmHg 47%
    06:00 +20°C° 0 mm 0 m/S 743 mmHg 44%
    07:00 +21°C° 0 mm 0 m/S 743 mmHg 41%
    08:00 +24°C° 0 mm 1 m/S 743 mmHg 36%
    09:00 +26°C° 0 mm 1 m/S 743 mmHg 31%
    10:00 +28°C° 0 mm 2 m/S 743 mmHg 26%
    11:00 +29°C° 0 mm 2 m/S 743 mmHg 25%
    12:00 +29°C° 0 mm 2 m/S 743 mmHg 23%
    13:00 +30°C° 0 mm 3 m/S 742 mmHg 22%
    14:00 +30°C° 0 mm 3 m/S 742 mmHg 23%
    15:00 +29°C° 0 mm 3 m/S 742 mmHg 25%
    16:00 +29°C° 0 mm 3 m/S 741 mmHg 26%
    17:00 +27°C° 0 mm 3 m/S 742 mmHg 32%
    18:00 +26°C° 0 mm 2 m/S 742 mmHg 37%
    19:00 +24°C° 0 mm 2 m/S 742 mmHg 43%
    20:00 +23°C° 0 mm 1 m/S 742 mmHg 46%
    21:00 +22°C° 0 mm 1 m/S 742 mmHg 50%
    22:00 +21°C° 0 mm 1 m/S 742 mmHg 53%
    23:00 +21°C° 0 mm 1 m/S 742 mmHg 56%

    27 April, Samstag

    Zeit Temperatur Niederschläge Wind Luftdruck Luftfeuchtigkeit
    00:00 +20°C° 0 mm 1 m/S 742 mmHg 60%
    01:00 +20°C° 0 mm 1 m/S 742 mmHg 63%
    02:00 +19°C° 0 mm 1 m/S 742 mmHg 65%
    03:00 +17°C° 0 mm 0 m/S 742 mmHg 67%
    04:00 +17°C° 0 mm 0 m/S 742 mmHg 69%
    05:00 +19°C° 0 mm 1 m/S 742 mmHg 66%
    06:00 +20°C° 0 mm 1 m/S 742 mmHg 63%
    07:00 +21°C° 0 mm 1 m/S 742 mmHg 60%
    08:00 +23°C° 0 mm 1 m/S 742 mmHg 52%
    09:00 +24°C° 0 mm 2 m/S 742 mmHg 45%
    10:00 +26°C° 0 mm 2 m/S 742 mmHg 37%
    11:00 +27°C° 0 mm 3 m/S 741 mmHg 36%
    12:00 +27°C° 0 mm 3 m/S 741 mmHg 35%
    13:00 +28°C° 0 mm 4 m/S 741 mmHg 34%
    14:00 +28°C° 0 mm 3 m/S 740 mmHg 34%
    15:00 +27°C° 0 mm 3 m/S 740 mmHg 34%
    16:00 +27°C° 0 mm 3 m/S 739 mmHg 34%
    17:00 +25°C° 0 mm 3 m/S 740 mmHg 40%
    18:00 +24°C° 0 mm 3 m/S 740 mmHg 46%
    19:00 +21°C° 0 mm 3 m/S 740 mmHg 52%
    20:00 +20°C° 0 mm 2 m/S 740 mmHg 56%
    21:00 +20°C° 0 mm 2 m/S 740 mmHg 59%
    22:00 +19°C° 0 mm 2 m/S 740 mmHg 63%
    23:00 +18°C° 0 mm 2 m/S 740 mmHg 66%
    Mehr zeigen